Other Public Products
Issued by NWS Charleston, SC

Current Version | Previous Version | Text Only | Print | Product List | Glossary Off
Versions: 1 2 3 4 5 6 7 8 9 10 11 12 13 14 15 16 17 18 19 20 21 22 23 24 25 26 27 28 29 30 31 32 33 34 35 36 37 38 39 40 41 42 43 44 45 46 47 48 49 50

783
FPUS82 KCHS 210725
OPUCHS

TEST...KCHS/KSAV Gateway Observations...TEST
National Weather Service Charleston SC
300 AM EDT THU SEP 21 2017

NOTE: "fair" indicates few or no clouds below 12,000 feet with no
significant weather and/or obstructions to visibility.

SCZ050-WAZ558-NCZ071-TXZ119-213-PAZ071-DCZ001-FLZ074-172-MI076-
NYZ176-178-MAZ016-IL014-TNZ027-NJZ106-GAZ044-MD014-210800-

...Gateway Observations for Charleston International...

CITY           SKY/WX    TMP DP  RH WIND       PRES   REMARKS
Chas Airport   CLEAR     73  73 100 S3        30.00F
Seattle        CLOUDY    51  48  89 SE7       29.83S
Charlotte      PTCLDY    71  69  93 NW7       30.03F
Dallas DFW     CLOUDY    83  73  72 S15       29.87F
Dallas Love    CLOUDY    83  72  69 S15       29.89S
Philladelphia  PTCLDY    72  64  76 NW7       29.97F
Wash National  CLEAR     72  65  78 CALM      29.99F
Baltimore      CLEAR     65  63  93 CALM      29.99S
Miami          MOCLDY    84  76  76 N3        29.94F HX  93
Detroit        PTCLDY    68  67  96 CALM      30.06S FOG
Newark         CLOUDY    74  63  68 N12       29.94S
Laguardia      CLOUDY    73  65  75 N10       29.93F
J F K          CLOUDY    74  64  71 N14       29.93F
Boston Logan   CLOUDY    71  64  78 N22G33    29.88F
Ft. Lauderdale PTCLDY    80  75  84 CALM      29.93F
Chicago O`Hare CLOUDY    79  67  66 CALM      29.95R
Chicago Midway CLOUDY    78  68  71 S6        29.95S
Houston Bush   PTCLDY    80  76  87 S5        29.95F
Houston Hobby  PTCLDY    81  76  84 SE5       29.95S
Nashville      CLEAR     71  69  93 S5        30.04S
Atlanta        PTCLDY    71  67  87 NW3       30.04F

$$

GAZ044-118-TXZ119-213-NCZ071-DCZ001-MDZ014-506-PAZ021-071-NJZ106-
NYZ176-178-MAZ106-OHZ011-021-055-MIZ076-KYZ091-ILZ014-INZ047-
MNZ060-ONZ431-210800-

...Gateway Observations for Savannah International...

CITY           SKY/WX    TMP DP  RH WIND       PRES   REMARKS
Savannah Arpt  CLEAR     73  71  93 CALM      30.01F
Atlanta        PTCLDY    71  67  87 NW3       30.04F
Charlotte      PTCLDY    71  69  93 NW7       30.03F
Dallas DFW     CLOUDY    83  73  72 S15       29.87F
Houston Bush   PTCLDY    80  76  87 S5        29.95F
Wash National  CLEAR     72  65  78 CALM      29.99F
Wash Dulles    CLEAR     60  60 100 CALM      30.00F
Baltimore      CLEAR     65  63  93 CALM      29.99S
Philadelphia   PTCLDY    72  64  76 NW7       29.97F
Newark         CLOUDY    74  63  68 N12       29.94S
Laguardia      CLOUDY    73  65  75 N10       29.93F
J F K          CLOUDY    74  64  71 N14       29.93F
Boston         CLOUDY    71  64  78 N22G33    29.88F
Pittsburg      CLEAR     66  64  93 NW3       30.08R
Akron          CLEAR     66  62  87 W3        30.10R
Cleveland      PTCLDY    69  63  81 CALM      30.09R
Cincinnati     CLEAR     69  69 100 CALM      30.06R
Columbus       CLEAR     65  65 100 CALM      30.07S FOG
Detroit        PTCLDY    68  67  96 CALM      30.06S FOG
Chicago O`Hare CLOUDY    79  67  66 CALM      29.95R
Minneapolis    CLEAR     57  52  83 CALM      30.00R
Indianapolis   CLEAR     72  69  90 SW3       30.03R
Toronto Canada CLEAR     64  59  82 NW3       30.08R

$$




USA.gov is the U.S. government's official web portal to all federal, state and local government web resources and services.